TimeEDT,TemperatureF,Dew PointF,Humidity,Sea Level PressureIn,VisibilityMPH,Wind Direction,Wind SpeedMPH,Gust SpeedMPH,PrecipitationIn,Events,Conditions,WindDirDegrees,DateUTC
12:56 AM,45.0,37.9,76,29.91,10.0,Calm,Calm,-,N/A,,Clear,0,2012-10-17 04:56:00
1:56 AM,44.1,37.9,79,29.91,10.0,NNW,5.8,-,N/A,,Clear,340,2012-10-17 05:56:00
2:56 AM,41.0,36.0,82,29.91,10.0,NNW,4.6,-,N/A,,Clear,330,2012-10-17 06:56:00
3:56 AM,41.0,36.0,82,29.92,10.0,Calm,Calm,-,N/A,,Partly Cloudy,0,2012-10-17 07:56:00
4:56 AM,41.0,36.0,82,29.93,10.0,NW,3.5,-,N/A,,Partly Cloudy,310,2012-10-17 08:56:00
6:56 AM,39.0,35.1,86,29.95,10.0,Calm,Calm,-,N/A,,Scattered Clouds,0,2012-10-17 10:56:00
7:56 AM,42.1,37.9,85,29.97,10.0,Calm,Calm,-,N/A,,Scattered Clouds,0,2012-10-17 11:56:00
8:56 AM,50.0,39.9,68,29.99,10.0,NNW,3.5,-,N/A,,Mostly Cloudy,340,2012-10-17 12:56:00
9:56 AM,53.1,37.9,57,30.01,10.0,North,9.2,-,N/A,,Mostly Cloudy,10,2012-10-17 13:56:00
10:56 AM,55.0,39.0,55,29.99,10.0,NW,4.6,-,N/A,,Mostly Cloudy,320,2012-10-17 14:56:00
11:56 AM,57.0,39.0,51,29.99,10.0,North,5.8,-,N/A,,Mostly Cloudy,350,2012-10-17 15:56:00
12:56 PM,57.0,37.9,49,29.96,10.0,NNW,9.2,-,N/A,,Mostly Cloudy,340,2012-10-17 16:56:00
1:56 PM,60.1,37.9,44,29.94,10.0,NW,6.9,-,N/A,,Mostly Cloudy,320,2012-10-17 17:56:00
2:56 PM,59.0,37.9,46,29.94,10.0,NW,6.9,-,N/A,,Mostly Cloudy,320,2012-10-17 18:56:00
3:56 PM,60.1,36.0,41,29.94,10.0,West,3.5,-,N/A,,Mostly Cloudy,260,2012-10-17 19:56:00
4:56 PM,57.0,43.0,59,29.94,10.0,SW,6.9,-,N/A,,Overcast,220,2012-10-17 20:56:00
5:56 PM,55.0,43.0,64,29.95,10.0,SSW,4.6,-,N/A,,Mostly Cloudy,210,2012-10-17 21:56:00
6:56 PM,55.0,43.0,64,29.97,10.0,SW,4.6,-,N/A,,Overcast,220,2012-10-17 22:56:00
7:56 PM,55.0,44.1,67,29.98,10.0,SSW,4.6,-,N/A,,Overcast,210,2012-10-17 23:56:00
8:56 PM,52.0,44.1,74,29.99,10.0,SW,4.6,-,N/A,,Overcast,230,2012-10-18 00:56:00
9:56 PM,53.1,45.0,74,29.99,10.0,SSW,3.5,-,N/A,,Mostly Cloudy,210,2012-10-18 01:56:00
10:56 PM,46.9,43.0,86,30.00,10.0,Calm,Calm,-,N/A,,Scattered Clouds,0,2012-10-18 02:56:00
11:56 PM,46.0,43.0,89,29.99,10.0,Calm,Calm,-,N/A,,Partly Cloudy,0,2012-10-18 03:56:00